This is the latest recevied weather packets stored in our database for station/object IU0KRR-10. If no packets are shown the sender has not sent any weather packets the latest 10 day(s).
| Time | Temp. | Humidity | Pressure | Rain* | Wind** | Luminosity | Snow |
|---|---|---|---|---|---|---|---|
| 1778231719 | 26.11° C | 31% | 870.9 hPa | - | - | - | - |
| 1778230818 | 25.56° C | 31% | 870.6 hPa | - | - | - | - |
| 1778229949 | 25.56° C | 32% | 870.6 hPa | - | - | - | - |
| 1778229917 | 25.56° C | 32% | 870.6 hPa | - | - | - | - |
| 1778229016 | 25° C | 33% | 870.5 hPa | - | - | - | - |
| 1778228116 | 24.44° C | 33% | 870.4 hPa | - | - | - | - |
| 1778227216 | 23.89° C | 34% | 870.3 hPa | - | - | - | - |
| 1778226349 | 23.89° C | 34% | 870.2 hPa | - | - | - | - |
| 1778226316 | 23.89° C | 34% | 870.2 hPa | - | - | - | - |
| 1778225415 | 23.89° C | 34% | 870.1 hPa | - | - | - | - |
| 1778224514 | 23.33° C | 35% | 870.1 hPa | - | - | - | - |
| 1778223614 | 22.78° C | 35% | 870 hPa | - | - | - | - |
| 1778222714 | 22.78° C | 34% | 869.8 hPa | - | - | - | - |
| 1778221814 | 23.33° C | 33% | 869.7 hPa | - | - | - | - |
| 1778220914 | 23.33° C | 32% | 869.6 hPa | - | - | - | - |
| 1778220014 | 22.78° C | 32% | 869.7 hPa | - | - | - | - |
| 1778219114 | 22.78° C | 32% | 869.6 hPa | - | - | - | - |
| 1778218213 | 21.67° C | 34% | 869.4 hPa | - | - | - | - |
| 1778217313 | 22.22° C | 32% | 869.4 hPa | - | - | - | - |
| 1778216413 | 22.22° C | 32% | 869.4 hPa | - | - | - | - |
| 1778215513 | 21.67° C | 34% | 869.4 hPa | - | - | - | - |
| 1778214613 | 22.22° C | 34% | 869.4 hPa | - | - | - | - |
| 1778213712 | 22.22° C | 34% | 869.3 hPa | - | - | - | - |
| 1778212811 | 22.22° C | 35% | 869.2 hPa | - | - | - | - |
| 1778211950 | 22.22° C | 34% | 869.1 hPa | - | - | - | - |
* Rain since midnight (hover to see other rain measurements)
** Current wind speed in m/s (hover to see current wind gust speed)